STARLINK-3975 (52620 NORAD) Tracking and Keplerian Element Data
This shows tracking and keplerian element data for the satellite.
Feedback or suggestion? Click here.
Element | Value |
Catalog | 52620 |
Name | STARLINK-3975 |
Epoch Orbit | 130 |
Epoch Day | 167.08334491 |
Epoch Year | 2022 |
RAAN | 282.7301 |
Inclination | 53.2175 |
Eccentricity | 0.0001243 |
Argument of Perigee | 65.246 |
Mean Anonmoly | 28.691 |
Mean Motion | 15.3740765 |
Decay Rate | -0.00841702 |
L1 | 1 52620U 22052Y 22167.08334491 -.00841702 00000+0 -24476-1 0 9993 |
L2 | 2 52620 53.2175 282.7301 0001243 65.2460 28.6910 15.37407650 1304 |
Live tracking and technical data element details for STARLINK-3975 (NORAD 52620). STARLINK-3975 can be tracked NOW for your location showing map with azimuth and elevation plus other details from your city location.
Track the satellite on the map from your city or location and see movement details for azimuth, elevation, latitude, longitude, range, height, and movement on the map or in text.
IsCatalogInMostPopularTable: catalog: 52620, numindb: 1
Update: records affected: 1
GetName: 52620 STARLINK-3975
Hit Count: updated at: Mon, 27 Jun 2022 04:37:51 GMT